Location: Dampvalley
(47.9094°N, 6.1967°E)
Time: 00:38:16
(UTC+00:00)

N. Korean satellite - Pass Details

Date: 21 September 2021
Orbit: 450 x 495 km, 97.3° (Epoch: 25 October)

Event Time Altitude Azimuth Distance (km) Brightness Sun altitude
Rises 03:49:41 0° 32° (NNE) 2,513 11.0 -15.8°
Reaches altitude 10° 03:52:39 10° 60° (ENE) 1,640 10.6 -15.3°
Maximum altitude 03:54:25 13° 90° (E) 1,450 10.1 -15.0°
Drops below altitude 10° 03:56:12 10° 121° (ESE) 1,646 9.8 -14.7°
Sets 03:59:10 0° 149° (SSE) 2,529 10.4 -14.2°
